McCook, NE

12:42 AM CDT on June 23, 2017 (GMT -0500)
McCook Municipal

Weather History for KMCK - January, 2014

Change the Weather History Date:

Wednesday, January 22, 2014

  Actual Average Record
Temperature  
Mean Temperature 24 °F 27 °F  
Max Temperature 39 °F 41 °F 73 °F (1943)
Min Temperature 9 °F 14 °F -18 °F (1966)
Degree Days  
Heating Degree Days 42    
Moisture  
Dew Point 12 °F    
Average Humidity 60    
Maximum Humidity 78    
Minimum Humidity 40    
Precipitation  
Precipitation 0.00 in 0.02 in 0.16 in (1974)
Month to date precipitation 0.01 0.36  
Year to date precipitation 0.01 0.36  
Sea Level Pressure  
Sea Level Pressure 30.31 in    
Wind  
Wind Speed 11 mph (NNW)    
Max Wind Speed 26 mph    
Max Gust Speed 33 mph    
Visibility 10 miles    
Events      
T = Trace of Precipitation, MM = Missing Value Source: NWS Daily Summary

Daily Weather History Graph

Daily Weather History Graph

Search for Another Location

Airport or City:

Trip Planner

Search our weather history database for the weather conditions in past years. The results will help you decide how hot, cold, wet, or windy it might be!

Date:

Astronomy

Jan. 22, 2014 Rise Set
Actual Time 7:59 AM CST 5:49 PM CST
Civil Twilight 7:29 AM CST 6:18 PM CST
Nautical Twilight 6:56 AM CST 6:51 PM CST
Astronomical Twilight 6:24 AM CST 7:23 PM CST
Moon No Moon Rise 11:00 AM CST (1/22)
Length of Visible Light 10h 48m
Length of Day
9h 49m
Waning Gibbous, 65% of the Moon is Illuminated
Jan 22
Waning Gibbous
Jan 23
Last Quarter
Jan 30
New
Feb 6
First Quarter
Feb 14
Full

Hourly Weather History & Observations

Time (CST) Temp. Windchill Dew Point Humidity Pressure Visibility Wind Dir Wind Speed Gust Speed Precip Events Conditions
12:53 AM 28.0 °F 19.3 °F 18.0 °F 66% 30.17 in 10.0 mi WNW 9.2 mph - N/A   Clear
1:53 AM 25.0 °F 17.1 °F 16.0 °F 69% 30.17 in 10.0 mi West 6.9 mph - N/A   Clear
2:53 AM 23.0 °F 13.9 °F 16.0 °F 74% 30.17 in 10.0 mi WSW 8.1 mph - N/A   Clear
3:53 AM 24.1 °F 13.7 °F 16.0 °F 71% 30.16 in 10.0 mi WNW 10.4 mph - N/A   Partly Cloudy
4:53 AM 23.0 °F 13.9 °F 16.0 °F 74% 30.17 in 10.0 mi West 8.1 mph - N/A   Mostly Cloudy
5:53 AM 21.9 °F 11.7 °F 16.0 °F 78% 30.20 in 10.0 mi West 9.2 mph - N/A   Clear
6:53 AM 21.0 °F 12.4 °F 15.1 °F 78% 30.23 in 10.0 mi West 6.9 mph - N/A   Partly Cloudy
7:53 AM 23.0 °F 18.4 °F 17.1 °F 78% 30.24 in 10.0 mi West 3.5 mph - N/A   Overcast
8:53 AM 25.0 °F 18.1 °F 17.1 °F 72% 30.25 in 10.0 mi SW 5.8 mph - N/A   Clear
9:53 AM 28.9 °F - 18.0 °F 64% 30.27 in 10.0 mi Calm Calm - N/A   Overcast
10:53 AM 32.0 °F 28.7 °F 19.9 °F 61% 30.28 in 10.0 mi SSW 3.5 mph - N/A   Mostly Cloudy
11:53 AM 34.0 °F 28.0 °F 21.0 °F 59% 30.27 in 10.0 mi Variable 6.9 mph - N/A   Overcast
12:53 PM 35.1 °F 30.1 °F 21.0 °F 57% 30.25 in 10.0 mi West 5.8 mph - N/A   Overcast
1:53 PM 37.9 °F 30.9 °F 21.0 °F 51% 30.23 in 10.0 mi NW 10.4 mph - N/A   Overcast
2:53 PM 37.9 °F 27.9 °F 18.0 °F 45% 30.24 in 10.0 mi North 19.6 mph - N/A   Mostly Cloudy
3:53 PM 34.0 °F 21.3 °F 18.0 °F 52% 30.26 in 10.0 mi NNE 25.3 mph - N/A   Overcast
4:53 PM 30.0 °F 16.3 °F 14.0 °F 51% 30.31 in 10.0 mi NNE 24.2 mph 31.1 mph N/A   Clear
5:53 PM 26.1 °F 12.0 °F 12.9 °F 58% 30.36 in 10.0 mi NNE 20.7 mph 28.8 mph N/A   Partly Cloudy
6:53 PM 21.0 °F 3.6 °F 8.1 °F 57% 30.44 in 10.0 mi NNE 26.5 mph 33.4 mph N/A   Clear
7:53 PM 17.1 °F 1.5 °F 5.0 °F 59% 30.49 in 10.0 mi NE 17.3 mph - N/A   Partly Cloudy
8:53 PM 14.0 °F -3.0 °F -0.9 °F 52% 30.53 in 10.0 mi NE 18.4 mph - N/A   Mostly Cloudy
9:53 PM 12.0 °F -6.9 °F -5.1 °F 46% 30.56 in 10.0 mi NNE 21.9 mph - N/A   Overcast
10:53 PM 10.9 °F -7.0 °F -9.0 °F 40% 30.60 in 10.0 mi NE 18.4 mph 25.3 mph N/A   Overcast
11:53 PM 9.0 °F -9.5 °F -11.0 °F 40% 30.63 in 10.0 mi NE 18.4 mph - N/A   Overcast